BEIDOU 8                
1 37384U 11013A   19265.23930075 -.00000150  00000-0  10000-3 0  9994
2 37384  58.9042  64.3511 0044303 200.7723 301.7422  1.00281966 31017
CZ-3A R/B               
1 37385U 11013B   19263.89240149 -.00000038  00000-0 -49551-2 0  9999
2 37385  55.6261  44.8730 6564614 235.6875  44.4784  2.63325118 80298